LogoCoinalyze
    Ad-Free Version Anasayfa Piyasalar Fonlama Oranları
    Vadeli işlem verileri
    • Toplulaştırılmış veriler (Madeni Paralar)
    • Bireysel grafikler
    • Küresel grafikler
    Alarmlar
    TA
    Bitcoin Ethereum BNB Ripple Tron ZCash Dogecoin Monero UNUS SED LEO Chainlink Cardano Stellar Lumens Bitcoin Cash Litecoin Hedera Cronos Polkadot Ethereum Classic Algorand Quant Cosmos VeChain Dash Bitcoin SV BitTorrent Terra Decred Tezos Iota The Graph THETA MultiversX Decentraland NEO Chiliz Golem Horizen Basic Attention Token Qtum 0x DigiByte Beam RIF Token FTX Token Holo FUNToken aelf Ontology Zilliqa Nano Enjin Coin Ravencoin Mask Network Verge Siacoin Status WINk Waves IoTeX iExec RLC Power Ledger Steem Kyber Network Crystal Lisk Ark Ardor WOO Network IOST WAX Icon Storj Loopring Wanchain Bitcoin Diamond Augur AdEx Bitcoin Gold OmiseGO NEM MonaCoin BitShares Ren Komodo V Systems Nuls Mithril SOLVE EOS Maker Aion Nebulas HedgeTrade Bread Fetch.ai TomoChain Polygon Fantom Waltonchain GXChain Bytom Metaverse ETP MaidSafeCoin QASH
    Sırala:
    Daha
    • API
    • Mum Desenleri
    • Bağış
    • İletişim
    • Site Haritası
    • Gizlilik Politikası
    • Sorumluluk Reddi Beyanı
    • Theme:
    Türkçe
    • English
    • Français
    • Русский
    • Deutsch
    • Nederlands
    • Português (BR)
    • Español
    • 한국어
    • 简体中文
    • 日本語
     
    Giriş / Kaydol
    Markets/ Pepe/ PEPE ve USDC/ PEPEUSDC Binance
    İşlemler
    WL
    Sohbet
    İstatistikler
    Haberler
    ⦷
    AAA
    0.00000352 391755.00000000 14:22:52
    0.00000352 8301974.00000000 14:22:20
    0.00000352 4542728.00000000 14:22:17
    0.00000352 11723972.00000000 14:22:17
    0.00000351 533858.00000000 14:22:04
    0.00000352 85227272.00000000 14:21:46
    0.00000352 13542972.00000000 14:20:28
    0.00000351 27078021.00000000 14:19:18
    0.00000351 4553863.00000000 14:19:07
    0.00000351 974892.00000000 14:19:01
    0.00000351 21713514.00000000 14:18:55
    0.00000351 32605312.00000000 14:18:51
    0.00000352 41600000.00000000 14:17:25
    0.00000351 1871147.00000000 14:16:36
    0.00000351 326007.00000000 14:16:27
    0.00000351 26424964.00000000 14:16:08
    0.00000351 96815919.00000000 14:16:02
    0.00000351 974892.00000000 14:16:00
    0.00000351 310287381.00000000 14:15:58
    0.00000351 5584615.00000000 14:15:57
    0.00000351 8097691.00000000 14:15:57
    0.00000351 7.00000000 14:15:57
    0.00000351 26426000.00000000 14:15:57
    0.00000351 974892.00000000 14:15:45
    0.00000351 315029732.00000000 14:15:44
    0.00000351 5422391.00000000 14:15:44
    0.00000351 542239045.00000000 14:15:44
    0.00000351 5584615.00000000 14:15:44
    0.00000351 5305384.00000000 14:15:44
    0.00000351 13087806.00000000 14:15:44
    0.00000351 8097692.00000000 14:15:44
    0.00000351 13855542.00000000 14:15:44
    0.00000351 54590028.00000000 14:15:44
    0.00000352 330058476.00000000 14:15:12
    0.00000351 655102.00000000 14:14:53
    0.00000351 974892.00000000 14:14:18
    0.00000351 28.00000000 14:14:11
    0.00000351 28490000.00000000 14:14:11
    0.00000351 7988884.00000000 14:14:02
    0.00000351 10742228.00000000 14:14:00
    0.00000350 1198192.00000000 14:13:18
    0.00000350 7781479.00000000 14:13:01
    0.00000350 2551969.00000000 14:12:31
    0.00000350 4773028.00000000 14:11:34
    0.00000349 1077379.00000000 14:10:58
    0.00000350 978021.00000000 14:10:05
    0.00000350 978021.00000000 14:09:21
    0.00000350 28898485.00000000 14:09:19
    0.00000350 75488381.00000000 14:09:13
    0.00000350 94958700.00000000 14:09:13
    0.00000349 1799727.00000000 14:07:14
    0.00000349 2182386.00000000 14:07:10
    0.00000350 4562481.00000000 14:07:09
    0.00000349 863331.00000000 14:06:55
    0.00000350 451108.00000000 14:06:55
    0.00000350 28571428.00000000 14:06:36
    0.00000350 7115048.00000000 14:06:25
    0.00000349 773478.00000000 14:04:38
    0.00000349 289880.00000000 14:04:06
    0.00000349 34.00000000 14:03:43
    0.00000349 233494800.00000000 14:03:43
    0.00000349 2990347.00000000 14:03:39
    0.00000350 358668.00000000 14:03:12
    0.00000349 677446.00000000 14:02:53
    0.00000349 31.00000000 14:01:32
    0.00000349 207303600.00000000 14:01:32
    0.00000349 6264354.00000000 14:01:21
    0.00000349 349067349.00000000 14:01:16
    0.00000349 25839000.00000000 14:01:16
    0.00000349 69258637.00000000 14:01:15
    0.00000349 5616619.00000000 14:01:12
    0.00000349 8144097.00000000 14:01:12
    0.00000349 26100000.00000000 14:01:12
    0.00000349 5616618.00000000 14:01:11
    0.00000349 8144097.00000000 14:01:11
    0.00000349 25443774.00000000 14:01:07
    0.00000349 656226.00000000 14:01:04
    0.00000349 327057.00000000 14:01:01
    0.00000349 26100000.00000000 14:01:01
    0.00000349 159270141.00000000 14:00:59
    0.00000349 115151311.00000000 14:00:59
    0.00000349 1267754.00000000 14:00:59
    0.00000349 125507617.00000000 14:00:59
    0.00000349 113999878.00000000 14:00:59
    0.00000349 126205928.00000000 14:00:59
    0.00000349 151452347.00000000 14:00:59
    0.00000349 110208211.00000000 14:00:59
    0.00000349 1259510.00000000 14:00:59
    0.00000349 124691404.00000000 14:00:59
    0.00000349 124691404.00000000 14:00:59
    0.00000349 4699335.00000000 14:00:59
    0.00000349 465234093.00000000 14:00:59
    0.00000349 5335788.00000000 14:00:59
    0.00000349 8144097.00000000 14:00:59
    0.00000349 14584566.00000000 14:00:59
    0.00000349 210989102.00000000 14:00:56
    0.00000349 2579347.00000000 14:00:56
    0.00000349 255355284.00000000 14:00:56
    0.00000349 3395782.00000000 14:00:56
    0.00000349 339578202.00000000 14:00:56
    Çıkış
    AAA
    Yardım
    🙂 🤣 😎 🤗 😛 😉 😜 🤑 🤔 😑 😴 😕 🙃 😲 😇 🙁 😢 😬 😟 😠 🕺 🏃 💪 ✌ 👌 👍 👎 👏 👋 🤝 🍺 🍻 🐋 🐟 🦈 🗽 🚄 ✈ 🛑 🚀 🏦 🌚 ⭐ 🌞 ⚡ 🏆 💰 💲 🔨 ❓ ❗ 💯 🔶 🏁
    ☺
    Giriş veya Kaydol ve sohbet
    24 Saat
    Değişim
    +2.62%
    Hacim
    477,519,528,151
    Yüksek
    0.00000352
    Düşük
    0.00000336
    7 Gün
    Değişim
    -8.57%
    Hacim
    3,500,880,044,173
    Yüksek
    0.00000401
    Düşük
    0.00000336
    30 Gün
    Değişim
    +20.96%
    Hacim
    18,536,959,787,986
    Yüksek
    0.00000455
    Düşük
    0.00000252
    DOGE, SHIB, PEPE, or Something Else: Which Meme Coin Can Make History in September? (3 AIs Weigh In)
    "DOGE remains the most likely to record the largest move in dollar terms and lead the entire sector," ChatGPT stated.
    cryptopotato.com
    Sept 3, 2026 00:41
    Pepe price rallies 25% as whale demand and futures interest surge
    Key takeaways Pepe has gained 25% this week, including a combined 22% advance over the previous two days. Seven whale transactions worth more than $1 million each occurred Thursday, the highest...
    coinjournal.net
    Aug 21, 2026 08:41
    PEPE Supply on Exchanges Just Took a Massive Hit – What’s Next?
    A drop in PEPE exchange balances has added to bullish expectations despite muted trader interest.
    cryptopotato.com
    Aug 6, 2026 20:02
    PEPE Exchange Outflows Hit Nearly 2-Year High as Whales Accumulate
    Pepe (PEPE) recorded its largest single-day exchange outflow since November 2024, with 4.54 trillion tokens leaving trading platforms, signaling that holders are moving supply away from immediate...
    beincrypto.com
    Aug 6, 2026 04:57
    Meme Coin Based on White House Shooter Conspiracy Rallies 320%
    $HENRY surged 300% after a 2023 Pepe tweet appeared to name the White House shooter, fueling a viral time-travel meme. The post Meme Coin Based on White House Shooter Conspiracy Rallies 320%...
    beincrypto.com
    Apr 27, 2026 16:11
    PEPE surges 4% as market sentiment improves, eyes Key resistance breakout
    Key takeaways Pepe extends gains on Wednesday, stretching its rally from the 50-day EMA. Derivatives data show heightened retail activity as risk-on sentiment returns to the market. Pepe (PEPE) is...
    coinjournal.net
    Apr 22, 2026 11:44
    Why The PEPE Price Could Stage A 55X Rally To Reach New $0.0001 ATH
    The PEPE price has now started to edge back into bullish conversations after the recent inflows into the crypto market. The last time PEPE’s weekly chart printed the kind of structure now...
    newsbtc.com
    Apr 21, 2026 15:30
    Pepe (PEPE) surges 9%, drawing interest from whales
    Key takeaways PEPE is up 9% in the last 24 hours, making it one of the best performers among the top 50 cryptocurrencies by market cap. The rally comes amid renewed interest from whales and retail...
    coinjournal.net
    Apr 16, 2026 07:40
    Murad Says SPX6900 (SPX) Is Primed for a Rally — Is He Right This Time?
    Crypto influencer Murad Mahmudov claims SPX6900 (SPX) is stabilizing at the same market cap level where Dogecoin (DOGE) and Pepe (PEPE) consolidated before their explosive rallies. The...
    beincrypto.com
    Apr 5, 2026 21:36
    The Shiba Inu Of This Cycle: Analyst Shares Why It Is Better To Buy PEPE Now
    In the bull market cycle of 2021-2022, the Shiba Inu meme coin made waves in a way that changed the face of meme coins forever. This came after Dogecoin’s initial 36,000% rally, and Shiba Inu...
    newsbtc.com
    Apr 4, 2026 07:30
    PEPE Explodes by 18% Amid Altcoin Rally, BTC Tapped $74K: Market Watch
    The frog-themed meme coin is today's biggest gainer, followed by TAO, DOT, and BONK.
    cryptopotato.com
    Mar 16, 2026 10:56
    Should PEPE traders brace for volatility as short squeeze potential builds?
    The memecoin market has seen its collective market capitalization drop by 48% over the past year, and 6.9% over the past month, according to CoinMarketCap. According to Glassnode, the memecoin...
    ambcrypto.com
    Mar 7, 2026 18:00
    Komutu sohbete yazmanız yeterlidir. Takma ad1'i gerçek takma adla değiştirin.
    • /ignore nick1 Sohbet kullanıcısını engelle
    • /unignore nick1 Sohbet kullanıcısının engelini kaldır.
    • /ignorelist Engellediğiniz sohbet kullanıcılarını gösterin